Weather History for Adelaide, SA

Change the Weather History Date:

Wednesday, April 10, 2013

  Actual Average Record
Temperature  
Mean Temperature 62 °F -  
Max Temperature 77 °F 70 °F 89 °F (2007)
Min Temperature 48 °F 52 °F 46 °F (1997)
Degree Days  
Heating Degree Days 2    
Growing Degree Days 12 (Base 50)    
Moisture  
Dew Point 43 °F    
Average Humidity 48    
Maximum Humidity 77    
Minimum Humidity 7    
Precipitation  
Precipitation 0.00 in 0.06 in - ()
Sea Level Pressure  
Sea Level Pressure 30.17 in    
Wind  
Wind Speed 5 mph ()    
Max Wind Speed 15 mph    
Max Gust Speed -    
Visibility 19.0 miles    
Events      
Averages and records for this station are not official NWS values.
T = Trace of Precipitation, MM = Missing Value Source: Averaged Metar Reports

Daily Weather History Graph

Daily Weather History Graph

Search for Another Location

Airport:

Trip Planner

Search our weather history database for the weather conditions in past years. The results will help you decide how hot, cold, wet, or windy it might be!

Date:

Astronomy

Apr. 10, 2013 Rise Set
Actual Time 6:35 AM ACST 5:58 PM ACST
Civil Twilight 6:10 AM ACST 6:24 PM ACST
Nautical Twilight 5:40 AM ACST 6:53 PM ACST
Astronomical Twilight 5:11 AM ACST 7:22 PM ACST
Moon 6:12 AM ACST (4/10) 5:41 PM ACST (4/10)
Length of Visible Light 12h 14m
Length of Day
11h 23m
Waning Crescent, 0% of the Moon is Illuminated
Apr 10
Waning Crescent
Apr 10
New
Apr 18
First Quarter
Apr 26
Full
May 2
Last Quarter

Hourly Weather History & Observations

Time (ACST) Temp. Dew Point Humidity Pressure Visibility Wind Dir Wind Speed Gust Speed Precip Events Conditions
12:00 AM 58 °F 48 °F 61% 30.22 in 25 mi SSE 6.9 mph - -   Partly Cloudy
12:00 AM 59.0 °F 48.2 °F 67% 30.21 in - SSE 6.9 mph - N/A   Clear
12:30 AM 58 °F 48 °F 61% 30.22 in - SSE 3.5 mph - -  
12:30 AM 59.0 °F 48.2 °F 67% 30.21 in - SSE 3.5 mph - N/A   Clear
1:00 AM 55.4 °F 48.2 °F 77% 30.18 in - Calm Calm - N/A   Clear
1:30 AM 51.8 °F 42.8 °F 71% 30.18 in - East 4.6 mph - N/A   Clear
2:00 AM 51.8 °F 42.8 °F 71% 30.18 in - East 4.6 mph - N/A   Clear
2:30 AM 51.8 °F 41.0 °F 67% 30.18 in - Calm Calm - N/A   Clear
3:00 AM 51 °F 42 °F 64% 30.18 in 25 mi Calm Calm - -   Partly Cloudy
3:00 AM 51.8 °F 42.8 °F 71% 30.18 in - Calm Calm - N/A   Clear
3:30 AM 51 °F 42 °F 63% 30.18 in - SE 2.3 mph - -  
3:30 AM 50.0 °F 42.8 °F 76% 30.18 in - SE 2.3 mph - N/A   Clear
4:00 AM 50.0 °F 42.8 °F 76% 30.15 in - ESE 1.2 mph - N/A   Clear
4:30 AM 50.0 °F 42.8 °F 76% 30.18 in - NE 4.6 mph - N/A   Clear
5:00 AM 50.0 °F 41.0 °F 71% 30.18 in - NE 3.5 mph - N/A   Clear
5:30 AM 50.0 °F 42.8 °F 76% 30.18 in - ESE 3.5 mph - N/A   Clear
6:00 AM 50 °F 43 °F 69% 30.21 in 25 mi SE 1.2 mph - -   Partly Cloudy
6:00 AM 50.0 °F 42.8 °F 76% 30.18 in - SE 1.2 mph - N/A   Clear
6:30 AM 51 °F 40 °F 57% 30.20 in - ENE 3.5 mph - -  
6:30 AM 50.0 °F 41.0 °F 71% 30.18 in - ENE 3.5 mph - N/A   Clear
7:00 AM 50.0 °F 41.0 °F 71% 30.18 in - Calm Calm - N/A   Clear
7:30 AM 55.4 °F 42.8 °F 63% 30.18 in - Calm Calm - N/A   Clear
8:00 AM 60.8 °F 42.8 °F 52% 30.21 in - East 2.3 mph - N/A   Clear
8:30 AM 66.2 °F 44.6 °F 46% 30.21 in - Calm Calm - N/A   Clear
9:00 AM 68 °F 41 °F 26% 30.23 in 22 mi SSW 4.6 mph - -   Partly Cloudy
9:00 AM 68.0 °F 41.0 °F 37% 30.21 in - SSW 4.6 mph - N/A   Clear
9:30 AM 69 °F 41 °F 25% 30.22 in - WSW 5.8 mph - -  
9:30 AM 69.8 °F 41.0 °F 35% 30.21 in - WSW 5.8 mph - N/A   Clear
10:00 AM 69.8 °F 50.0 °F 49% 30.21 in - WSW 6.9 mph - N/A   Clear
10:30 AM 69.8 °F 53.6 °F 56% 30.21 in - WSW 8.1 mph - N/A   Clear
11:00 AM 69.8 °F 53.6 °F 56% 30.18 in - SW 6.9 mph - N/A   Clear
11:30 AM 69.8 °F 55.4 °F 60% 30.18 in - WSW 9.2 mph - N/A   Clear
12:00 PM 71 °F 54 °F 44% 30.19 in 19 mi WSW 9.2 mph - -   Haze
12:00 PM 71.6 °F 53.6 °F 53% 30.18 in - WSW 9.2 mph - N/A   Clear
12:30 PM 73 °F 49 °F 32% 30.18 in - WSW 10.4 mph - -  
12:30 PM 73.4 °F 50.0 °F 44% 30.18 in - WSW 10.4 mph - N/A   Clear
1:00 PM 73.4 °F 51.8 °F 47% 30.15 in - WSW 11.5 mph - N/A   Clear
1:30 PM 73.4 °F 51.8 °F 47% 30.15 in - WSW 11.5 mph - N/A   Clear
2:00 PM 75.2 °F 46.4 °F 36% 30.15 in - SW 10.4 mph - N/A   Clear
2:30 PM 73.4 °F 53.6 °F 50% 30.12 in - SSW 13.8 mph - N/A   Clear
3:00 PM 73 °F 56 °F 46% 30.15 in 25 mi SW 13.8 mph - -   Partly Cloudy
3:00 PM 73.4 °F 57.2 °F 57% 30.12 in - SW 13.8 mph - N/A   Clear
3:30 PM 73 °F 57 °F 47% 30.14 in - SW 13.8 mph - -  
3:30 PM 73.4 °F 57.2 °F 57% 30.12 in - SW 13.8 mph - N/A   Clear
4:00 PM 73.4 °F 55.4 °F 53% 30.12 in - SW 12.7 mph - N/A   Clear
4:30 PM 73.4 °F 51.8 °F 47% 30.12 in - SW 15.0 mph - N/A   Clear
5:00 PM 73.4 °F 55.4 °F 53% 30.12 in - SW 10.4 mph - N/A   Clear
5:30 PM 77.0 °F 42.8 °F 29% 30.12 in - SE 12.7 mph - N/A   Clear
6:00 PM 73 °F 40 °F 19% 30.14 in 25 mi SE 8.1 mph - -   Smoke
6:00 PM 73.4 °F 39.2 °F 29% 30.12 in - SE 8.1 mph - N/A   Clear
6:30 PM 72 °F 32 °F 13% 30.15 in - SSE 8.1 mph - -  
6:30 PM 71.6 °F 32.0 °F 23% 30.12 in - SSE 8.1 mph - N/A   Clear
7:00 PM 69.8 °F 32.0 °F 25% 30.15 in - SE 8.1 mph - N/A   Clear
7:30 PM 68.0 °F 30.2 °F 24% 30.15 in - SE 5.8 mph - N/A   Clear
8:00 PM 68.0 °F 24.8 °F 20% 30.15 in - ESE 5.8 mph - N/A   Clear
8:30 PM 66.2 °F 21.2 °F 18% 30.15 in - East 6.9 mph - N/A   Clear
9:00 PM 67 °F 18 °F 7% 30.17 in 25 mi North 5.8 mph - -   Partly Cloudy
9:00 PM 66.2 °F 17.6 °F 15% 30.15 in - North 5.8 mph - N/A   Clear
9:30 PM 67 °F 42 °F 29% 30.18 in - West 10.4 mph - -  
9:30 PM 66.2 °F 42.8 °F 43% 30.15 in - West 10.4 mph - N/A   Clear
10:00 PM 64.4 °F 35.6 °F 34% 30.15 in - ESE 5.8 mph - N/A   Clear
10:30 PM 64.4 °F 28.4 °F 26% 30.15 in - SSE 4.6 mph - N/A   Clear
11:00 PM 62.6 °F 26.6 °F 26% 30.15 in - Calm Calm - N/A   Clear
11:30 PM 57.2 °F 30.2 °F 36% 30.15 in - ENE 4.6 mph - N/A   Clear